Weather History for Coldwater, MI

Change the Weather History Date:

Monday, October 10, 2011

  Actual Average (KJYM) Record (KJYM)
Temperature  
Mean Temperature 64 °F -  
Max Temperature 77 °F 60 °F 86 °F (2010)
Min Temperature 50 °F 39 °F 21 °F (1989)
Degree Days  
Heating Degree Days 2    
Growing Degree Days 14 (Base 50)    
Moisture  
Dew Point 50 °F    
Average Humidity 69    
Maximum Humidity 100    
Minimum Humidity 34    
Precipitation  
Precipitation 0.00 in - - ()
Sea Level Pressure  
Sea Level Pressure 30.24 in    
Wind  
Wind Speed 3 mph (SE)    
Max Wind Speed 12 mph    
Max Gust Speed 21 mph    
Visibility 9 miles    
Events      
Averages and records for this station are not official NWS values.
T = Trace of Precipitation, MM = Missing Value Source: NWS Daily Summary

Daily Weather History Graph

Daily Weather History Graph

Search for Another Location

Airport:

Trip Planner

Search our weather history database for the weather conditions in past years. The results will help you decide how hot, cold, wet, or windy it might be!

Date:

Astronomy

Oct. 10, 2011 Rise Set
Actual Time 7:46 AM EDT 7:07 PM EDT
Civil Twilight 7:18 AM EDT 7:35 PM EDT
Nautical Twilight 6:46 AM EDT 8:07 PM EDT
Astronomical Twilight 6:14 AM EDT 8:39 PM EDT
Moon 6:10 PM EDT (10/10) 6:26 AM EDT (10/10)
Length of Visible Light 12h 16m
Length of Day
11h 20m
Waxing Gibbous, 98% of the Moon is Illuminated
Oct 10
Waxing Gibbous
Oct 11
Full
Oct 19
Last Quarter
Oct 26
New
Nov 2
First Quarter

Hourly Weather History & Observations

Time (EDT) Temp. Dew Point Humidity Pressure Visibility Wind Dir Wind Speed Gust Speed Precip Events Conditions
12:14 AM 59.0 °F 51.8 °F 77% 30.30 in 10.0 mi SE 3.5 mph - N/A   Clear
12:35 AM 59.0 °F 51.8 °F 77% 30.30 in 10.0 mi Calm Calm - N/A   Clear
12:55 AM 53.6 °F 51.8 °F 94% 30.29 in 10.0 mi Calm Calm - N/A   Clear
1:14 AM 55.4 °F 51.8 °F 88% 30.29 in 10.0 mi Calm Calm - N/A   Clear
1:35 AM 53.6 °F 51.8 °F 94% 30.29 in 10.0 mi East 3.5 mph - N/A   Clear
2:15 AM 53.6 °F 51.8 °F 94% 30.29 in 7.0 mi Calm Calm - N/A   Clear
2:35 AM 51.8 °F 50.0 °F 94% 30.29 in 7.0 mi Calm Calm - N/A   Clear
2:54 AM 51.8 °F 50.0 °F 94% 30.29 in 7.0 mi East 3.5 mph - N/A   Clear
3:15 AM 51.8 °F 50.0 °F 94% 30.28 in 7.0 mi East 3.5 mph - N/A   Clear
3:35 AM 51.8 °F 50.0 °F 94% 30.28 in 5.0 mi Calm Calm - N/A   Clear
3:54 AM 51.8 °F 50.0 °F 94% 30.28 in 5.0 mi Calm Calm - N/A   Clear
4:34 AM 51.8 °F 50.0 °F 94% 30.28 in 5.0 mi Calm Calm - N/A   Clear
4:55 AM 50.0 °F 46.4 °F 87% 30.28 in 7.0 mi ENE 3.5 mph - N/A   Clear
5:14 AM 50.0 °F 50.0 °F 100% 30.28 in 4.0 mi Calm Calm - N/A   Clear
5:34 AM 50.0 °F 50.0 °F 100% 30.27 in 4.0 mi Calm Calm - N/A   Clear
5:55 AM 50.0 °F 50.0 °F 100% 30.27 in 7.0 mi Calm Calm - N/A   Clear
6:14 AM 50.0 °F 48.2 °F 94% 30.26 in 7.0 mi Calm Calm - N/A   Clear
6:34 AM 50.0 °F 48.2 °F 94% 30.26 in 7.0 mi East 3.5 mph - N/A   Clear
6:55 AM 50.0 °F 46.4 °F 87% 30.26 in 7.0 mi East 3.5 mph - N/A   Clear
7:14 AM 50.0 °F 46.4 °F 87% 30.26 in 10.0 mi East 3.5 mph - N/A   Clear
7:34 AM 50.0 °F 46.4 °F 87% 30.26 in 7.0 mi East 3.5 mph - N/A   Clear
7:55 AM 50.0 °F 46.4 °F 87% 30.26 in 7.0 mi East 4.6 mph - N/A   Clear
8:14 AM 51.8 °F 48.2 °F 88% 30.27 in 7.0 mi East 3.5 mph - N/A   Clear
8:34 AM 51.8 °F 50.0 °F 94% 30.27 in 7.0 mi East 3.5 mph - N/A   Clear
9:14 AM 55.4 °F 51.8 °F 88% 30.28 in 7.0 mi Calm Calm - N/A   Clear
9:35 AM 59.0 °F 51.8 °F 77% 30.28 in 4.0 mi Calm Calm - N/A   Haze
9:54 AM 60.8 °F 53.6 °F 77% 30.27 in 10.0 mi Calm Calm - N/A   Clear
10:14 AM 60.8 °F 51.8 °F 72% 30.28 in 10.0 mi Calm Calm - N/A   Clear
10:35 AM 62.6 °F 51.8 °F 68% 30.27 in 10.0 mi SE 3.5 mph - N/A   Clear
10:54 AM 62.6 °F 51.8 °F 68% 30.26 in 10.0 mi ESE 5.8 mph - N/A   Clear
11:15 AM 66.2 °F 51.8 °F 60% 30.26 in 10.0 mi SE 8.1 mph - N/A   Clear
11:35 AM 68.0 °F 51.8 °F 56% 30.25 in 10.0 mi SSE 9.2 mph - N/A   Clear
11:54 AM 68.0 °F 50.0 °F 52% 30.25 in 10.0 mi SSE 6.9 mph - N/A   Clear
12:15 PM 69.8 °F 51.8 °F 53% 30.25 in 10.0 mi SE 5.8 mph - N/A   Clear
12:34 PM 71.6 °F 50.0 °F 46% 30.25 in 10.0 mi SSE 11.5 mph 16.1 mph N/A   Clear
1:15 PM 69.8 °F 51.8 °F 53% 30.24 in 10.0 mi SSE 8.1 mph - N/A   Clear
1:35 PM 71.6 °F 51.8 °F 50% 30.22 in 10.0 mi SSE 8.1 mph - N/A   Clear
1:54 PM 73.4 °F 50.0 °F 44% 30.21 in 10.0 mi SSE 10.4 mph - N/A   Clear
2:15 PM 75.2 °F 50.0 °F 41% 30.21 in 10.0 mi SE 8.1 mph 20.7 mph N/A   Clear
2:34 PM 75.2 °F 50.0 °F 41% 30.20 in 10.0 mi South 8.1 mph 16.1 mph N/A   Clear
2:54 PM 75.2 °F 50.0 °F 41% 30.19 in 10.0 mi South 11.5 mph 16.1 mph N/A   Clear
3:15 PM 73.4 °F 50.0 °F 44% 30.18 in 10.0 mi ESE 9.2 mph - N/A   Scattered Clouds
3:34 PM 75.2 °F 50.0 °F 41% 30.17 in 10.0 mi South 8.1 mph - N/A   Scattered Clouds
3:54 PM 75.2 °F 50.0 °F 41% 30.17 in 10.0 mi SE 10.4 mph - N/A   Clear
4:15 PM 77.0 °F 50.0 °F 39% 30.16 in 10.0 mi SSE 8.1 mph 18.4 mph N/A   Clear
4:34 PM 77.0 °F 46.4 °F 34% 30.16 in 10.0 mi South 9.2 mph 18.4 mph N/A   Clear
4:55 PM 77.0 °F 48.2 °F 36% 30.15 in 10.0 mi SSE 8.1 mph - N/A   Clear
5:15 PM 75.2 °F 48.2 °F 38% 30.14 in 10.0 mi SSE 6.9 mph - N/A   Clear
5:34 PM 73.4 °F 48.2 °F 41% 30.14 in 10.0 mi SSE 8.1 mph - N/A   Clear
5:55 PM 73.4 °F 50.0 °F 44% 30.13 in 10.0 mi SE 3.5 mph - N/A   Clear
6:14 PM 71.6 °F 50.0 °F 46% 30.13 in 10.0 mi SE 3.5 mph - N/A   Clear
6:34 PM 71.6 °F 50.0 °F 46% 30.12 in 10.0 mi SE 4.6 mph - N/A   Clear
6:55 PM 69.8 °F 50.0 °F 49% 30.12 in 10.0 mi ESE 3.5 mph - N/A   Clear
7:34 PM 68.0 °F 50.0 °F 52% 30.12 in 10.0 mi ESE 3.5 mph - N/A   Clear
8:15 PM 64.4 °F 50.0 °F 59% 30.13 in 10.0 mi ESE 4.6 mph - N/A   Clear
8:34 PM 64.4 °F 50.0 °F 59% 30.13 in 10.0 mi Calm Calm - N/A   Clear
8:55 PM 62.6 °F 51.8 °F 68% 30.13 in 10.0 mi ESE 3.5 mph - N/A   Clear
9:34 PM 62.6 °F 51.8 °F 68% 30.13 in 10.0 mi SE 3.5 mph - N/A   Clear
9:55 PM 62.6 °F 51.8 °F 68% 30.13 in 10.0 mi SE 3.5 mph - N/A   Clear
10:14 PM 60.8 °F 51.8 °F 72% 30.13 in 10.0 mi SE 4.6 mph - N/A   Clear
10:34 PM 60.8 °F 51.8 °F 72% 30.13 in 10.0 mi SE 3.5 mph - N/A   Clear
10:55 PM 60.8 °F 51.8 °F 72% 30.13 in 10.0 mi SE 3.5 mph - N/A   Clear
11:35 PM 60.8 °F 51.8 °F 72% 30.13 in 10.0 mi SE 4.6 mph - N/A   Clear
11:54 PM 59.0 °F 51.8 °F 77% 30.13 in 10.0 mi SE 4.6 mph - N/A   Clear